Memphis, TN

9:36 PM CST on February 10, 2016 (GMT -0600)
Memphis International

Weather History for KMEM - August, 2013

Change the Weather History Date:

Wednesday, August 14, 2013

  Actual Average Record
Temperature  
Mean Temperature 74 °F 82 °F  
Max Temperature 80 °F 92 °F 104 °F (2007)
Min Temperature 67 °F 73 °F 56 °F (2004)
Degree Days  
Heating Degree Days 0 0  
Month to date heating degree days 0 0  
Since 1 June heating degree days 0 0  
Since 1 July heating degree days 0 0  
Cooling Degree Days 9 17  
Month to date cooling degree days 236 250  
Year to date cooling degree days 1456 1558  
Since 1 June cooling degree days 1171 1237  
Growing Degree Days 24 (Base 50)    
Moisture  
Dew Point 58 °F    
Average Humidity 58    
Maximum Humidity 73    
Minimum Humidity 42    
Precipitation  
Precipitation 0.00 in 0.09 in 1.88 in (1957)
Month to date precipitation 1.51 1.52  
Year to date precipitation 45.29 34.02  
Snow  
Snow 0.00 in 0.00 in - ()
Month to date snowfall 0.0 0.0  
Since 1 June snowfall 0.0 0.0  
Since 1 July snowfall 0.0 0.0  
Snow Depth 0.00 in    
Sea Level Pressure  
Sea Level Pressure 30.04 in    
Wind  
Wind Speed 12 mph (NE)    
Max Wind Speed 18 mph    
Max Gust Speed 26 mph    
Visibility 10 miles    
Events      
T = Trace of Precipitation, MM = Missing Value Source: NWS Daily Summary

Daily Weather History Graph

Daily Weather History Graph

Search for Another Location

Airport or City:

Trip Planner

Search our weather history database for the weather conditions in past years. The results will help you decide how hot, cold, wet, or windy it might be!

Date:

Astronomy

Aug. 14, 2013 Rise Set
Actual Time 6:19 AM CDT 7:49 PM CDT
Civil Twilight 5:52 AM CDT 8:15 PM CDT
Nautical Twilight 5:20 AM CDT 8:48 PM CDT
Astronomical Twilight 4:46 AM CDT 9:21 PM CDT
Moon 1:58 PM CDT (8/14) No Moon Set
Length of Visible Light 14h 23m
Length of Day
13h 29m
First Quarter, 53% of the Moon is Illuminated
Aug 14
First Quarter
Aug 20
Full
Aug 28
Last Quarter
Sep 5
New
Sep 12
First Quarter

Hourly Weather History & Observations

Time (CDT) Temp. Dew Point Humidity Pressure Visibility Wind Dir Wind Speed Gust Speed Precip Events Conditions
12:54 AM 75.9 °F 64.9 °F 69% 29.98 in 10.0 mi NNE 11.5 mph - N/A   Mostly Cloudy
1:54 AM 75.0 °F 64.9 °F 71% 29.97 in 10.0 mi NE 13.8 mph - N/A   Scattered Clouds
2:54 AM 73.9 °F 64.9 °F 73% 29.98 in 10.0 mi NE 12.7 mph - N/A   Scattered Clouds
3:54 AM 73.0 °F 64.0 °F 73% 29.99 in 10.0 mi NE 12.7 mph 18.4 mph N/A   Mostly Cloudy
4:54 AM 72.0 °F 63.0 °F 73% 30.01 in 10.0 mi NE 15.0 mph - N/A   Mostly Cloudy
5:54 AM 71.1 °F 63.0 °F 75% 30.03 in 10.0 mi NE 15.0 mph - N/A   Scattered Clouds
6:54 AM 70.0 °F 61.0 °F 73% 30.04 in 10.0 mi NE 12.7 mph - N/A   Partly Cloudy
7:54 AM 70.0 °F 60.1 °F 71% 30.05 in 10.0 mi NE 11.5 mph - N/A   Partly Cloudy
8:54 AM 73.0 °F 59.0 °F 61% 30.07 in 10.0 mi NE 12.7 mph - N/A   Partly Cloudy
9:54 AM 75.0 °F 55.9 °F 51% 30.07 in 10.0 mi ENE 12.7 mph - N/A   Partly Cloudy
10:54 AM 77.0 °F 54.0 °F 45% 30.08 in 10.0 mi NNE 16.1 mph 24.2 mph N/A   Partly Cloudy
11:54 AM 78.1 °F 55.0 °F 45% 30.08 in 10.0 mi NNE 9.2 mph - N/A   Partly Cloudy
12:54 PM 79.0 °F 55.0 °F 44% 30.06 in 10.0 mi North 10.4 mph - N/A   Clear
1:54 PM 79.0 °F 54.0 °F 42% 30.06 in 10.0 mi NNE 10.4 mph 19.6 mph N/A   Partly Cloudy
2:54 PM 79.0 °F 55.9 °F 45% 30.05 in 10.0 mi North 8.1 mph 18.4 mph N/A   Partly Cloudy
3:54 PM 78.1 °F 55.9 °F 46% 30.04 in 10.0 mi NNE 10.4 mph 20.7 mph N/A   Partly Cloudy
4:54 PM 79.0 °F 54.0 °F 42% 30.04 in 10.0 mi North 16.1 mph 20.7 mph N/A   Scattered Clouds
5:54 PM 77.0 °F 54.0 °F 45% 30.04 in 10.0 mi NNE 10.4 mph - N/A   Scattered Clouds
6:54 PM 75.0 °F 54.0 °F 48% 30.04 in 10.0 mi NE 15.0 mph - N/A   Scattered Clouds
7:54 PM 73.0 °F 54.0 °F 51% 30.05 in 10.0 mi NNE 10.4 mph - N/A   Partly Cloudy
8:54 PM 71.1 °F 55.0 °F 57% 30.05 in 10.0 mi NNE 9.2 mph - N/A   Clear
9:54 PM 70.0 °F 55.0 °F 59% 30.06 in 10.0 mi NNE 9.2 mph - N/A   Clear
10:54 PM 69.1 °F 55.0 °F 61% 30.07 in 10.0 mi NE 10.4 mph - N/A   Clear
11:54 PM 68.0 °F 54.0 °F 61% 30.08 in 10.0 mi ENE 10.4 mph - N/A   Clear